Location: *
(45.9500°N, 9.0833°E)
Time: 18:35:53
(UTC+00:00)

Cosmos 2237 - Pass Details

Date: 03 March 2021
Orbit: 845 x 857 km, 70.8° (Epoch: 15 April)

Event Time Altitude Azimuth Distance (km) Brightness Sun altitude
Rises 18:06:13 0° 192° (SSW) 3,406 7.5 -10.0°
Reaches altitude 10° 18:08:41 10° 188° (S) 2,476 6.7 -10.4°
Maximum altitude 18:14:15 58° 111° (ESE) 996 4.3 -11.4°
Drops below altitude 10° 18:19:51 10° 34° (NNE) 2,498 6.4 -12.4°
Sets 18:22:21 0° 30° (NNE) 3,439 7.1 -12.8°
